Location: CAO
(44.5093°N, 80.3921°W)
Time: 23:34:51
(UTC-04:00)

BlueWalker 3 - Visible Passes

Search period start: 07 October 2024 00:00
Search period end: 17 October 2024 00:00
Orbit: 473 x 485 km, 53.2° (Epoch: 07 October)

Date Brightness Start Highest point End Pass type
(mag) Time Alt. Az. Time Alt. Az. Time Alt. Az.
07 Oct 4.1 04:49:56 23° E 04:49:56 23° E 04:51:51 10° ENE visible
07 Oct 2.3 06:24:09 20° W 06:26:27 47° NNW 06:30:03 10° NE visible
08 Oct 5.0 04:23:05 13° E 04:23:05 13° E 04:23:32 10° ENE visible
08 Oct 2.1 05:57:17 40° WNW 05:58:12 51° NNW 06:01:49 10° NE visible
09 Oct 2.3 05:30:19 52° N 05:30:19 52° N 05:33:33 10° NE visible
10 Oct 3.6 05:03:14 29° NE 05:03:14 29° NE 05:05:14 10° NE visible
10 Oct 3.5 06:37:26 12° WNW 06:40:04 23° N 06:43:06 10° NE visible
11 Oct 4.8 04:36:05 16° NE 04:36:05 16° NE 04:36:52 10° NE visible
11 Oct 3.4 06:10:16 19° NW 06:11:39 24° NNW 06:14:42 10° NE visible
12 Oct 3.3 05:43:03 25° NNW 05:43:11 25° NNW 05:46:17 10° NE visible
13 Oct 3.8 05:15:46 22° NNE 05:15:46 22° NNE 05:17:50 10° NE visible
13 Oct 3.7 06:50:36 10° NW 06:53:32 22° N 06:56:28 10° ENE visible
14 Oct 4.7 04:48:26 15° NE 04:48:26 15° NE 04:49:21 10° NE visible
14 Oct 3.7 06:22:36 13° NW 06:24:58 21° N 06:27:53 10° ENE visible
15 Oct 3.7 05:55:14 18° NNW 05:56:22 21° N 05:59:15 10° NE visible
16 Oct 3.8 05:27:51 21° N 05:27:51 21° N 05:30:36 10° NE visible
16 Oct 3.0 07:02:58 10° NW 07:06:26 37° NNE 07:09:54 10° E visible
